Location: Cactus School
(34.5700°N, 118.0931°W)
Time: 09:48:23
(UTC-08:00)

A-11 Canister half - Pass Details

Date: 25 November 2019
Orbit: 1515 x 1685 km, 47.2° (Epoch: 05 December)

Event Time Altitude Azimuth Distance (km) Brightness Sun altitude
Rises 19:45:58 0° 296° (WNW) 4,920 12.4 -37.3°
Reaches altitude 10° 19:49:23 10° 303° (WNW) 3,942 11.7 -38.0°
Enters shadow 19:57:42 43° 355° (N) 2,240 9.7 -39.7°
